Regional Weather Roundup
Issued by NWS

Home | Current Version | Previous Version | Graphics & Text | Print | Product List | Glossary On
Versions: 1 2 3 4 5 6 7 8 9 10 11 12 13 14 15 16 17 18 19 20 21 22 23 24 25 26 27 28 29 30 31 32 33 34 35 36 37 38 39 40 41 42 43 44 45 46 47 48
000
ASUS45 KBOU 061907
RWRCO

WEATHER ROUNDUP FOR COLORADO
NATIONAL WEATHER SERVICE DENVER/BOULDER CO
1200 PM MST SAT FEB 06 2016

NOTE: "FAIR" INDICATES FEW OR NO CLOUDS BELOW 12000 FEET WITH NO
SIGNIFICANT WEATHER AND/OR OBSTRUCTIONS TO VISIBILITY.

COZ001>005-013-030-031-062000-
...NORTHWEST COLORADO...

CITY           SKY/WX    TMP DP  RH WIND       PRES   REMARKS
CRAIG          CLOUDY    13   8  81 CALM      30.47F
HAYDEN         CLOUDY    18   9  68 SE8       30.45F WCI   7
MEEKER         SUNNY     17   8  67 CALM      30.47F
MOUNT WERNER   NOT AVBL
STEAMBOAT SPGS CLOUDY    15   7  70 CALM      30.44F
WALDEN         CLOUDY    27  12  54 S12G20    30.37S WCI  16
$$

COZ006>008-011-062000-
...WEST CENTRAL VALLEYS...

CITY           SKY/WX    TMP DP  RH WIND       PRES   REMARKS
GRAND JUNCTION SUNNY     17  13  84 NW5       30.58F WCI  10
MONTROSE       SUNNY     25  12  58 N3        30.54F
EAGLE          SUNNY     14   3  62 CALM      30.54F
RIFLE          SUNNY     19   8  62 CALM      30.54F
DELTA          SUNNY     26  11  51 CALM      30.55F
NUCLA          SUNNY     27  10  50 CALM      30.54F
$$

COZ017>023-064>068-062000-
...SOUTHWEST COLORADO...

CITY           SKY/WX    TMP DP  RH WIND       PRES   REMARKS
DURANGO        SUNNY     24  10  55 VRB3      30.46F
CORTEZ         SUNNY     29  16  58 SW8       30.49F WCI  21
PAGOSA SPRINGS SUNNY     28  12  51 S3        30.44S
TELLURIDE      SUNNY     35  10  36 CALM      30.45F
WOLF CREEK PAS CLOUDY    30   9  40 N3        30.45S
$$

COZ009-010-012-014-032>034-037-058>063-062000-
...CENTRAL COLORADO...

CITY           SKY/WX    TMP DP  RH WIND       PRES   REMARKS
ASPEN          SUNNY     22  10  60 N8        30.42F WCI  12
BUENA VISTA    CLOUDY    31  12  46 SE6       30.32F WCI  25
COPPER MTN     MOSUNNY   23  12  63 W17G23    30.36F WCI   9
BERTHOUD PASS  LGT SNOW  10   0  61 NW46      30.22F WCI -16
COTTONWOOD PAS CLOUDY    37   9  30 W9G29     30.33F
GUNNISON       CLOUDY    -2  -4  92 E5        30.57F WCI -12
KREMMLING      CLOUDY   N/A N/A N/A CALM      30.49F
LEADVILLE      MOSUNNY   29  11  47 N8        30.34F WCI  21
MONARCH PASS     N/A     12  10  92 MISG      30.45F
SALIDA         NOT AVBL
SUNLIGHT       SUNNY     28  21  74 CALM        N/A
WILKERSON PASS CLOUDY    30   9  40 NW10G18   30.32F WCI  21
$$

COZ069>075-062000-
...SAN LUIS VALLEY/SANGRE DE CRISTO MOUNTAINS...

CITY           SKY/WX    TMP DP  RH WIND       PRES   REMARKS
ALAMOSA        CLOUDY    24   7  48 SW5       30.41F WCI  18
LA VETA PASS   CLOUDY    27   9  46 MISG      30.30S
SAGUACHE       CLOUDY    23   9  54 SE3       30.42F
$$

COZ035-036-038>040-062000-
...NORTHERN COLORADO FRONT RANGE...

CITY           SKY/WX    TMP DP  RH WIND       PRES   REMARKS
DENVER INTL AP CLOUDY    41  21  44 SW13      30.15F
DMNS CITY PARK   N/A     47  16  29 E8        30.15F
AURORA         PTSUNNY   44  20  38 W9        30.16F
FRONT RANGE AP PTSUNNY   39  21  48 MISG      30.16F
ERIE MUNI ARPT CLOUDY    32  18  55 CALM      30.15F
BOULDER MUN AP CLOUDY    45  16  31 NW8G17    30.14F
CENTENNIAL     CLOUDY    42  19  39 SW8       30.16F
BROOMFIELD     PTSUNNY   19  18  93 W26       30.15F WCI   1
FORT COLLINS   CLOUDY    30  18  59 CALM      30.17F
LONGMONT       CLOUDY    39  17  40 CALM      30.17F
$$

COZ041-046-047-076>085-087-088-062000-
...PIKES PEAK/PALMER DIVIDE AND SOUTHERN FOOTHILLS...

CITY           SKY/WX    TMP DP  RH WIND       PRES   REMARKS
COLO. SPRINGS  CLOUDY    42   5  21 E3        30.20F
A. F. ACADEMY  CLOUDY    40  12  32 S6        30.19F
SCHRIEVER AFB  FAIR      38   8  28 SW3       30.20F
ELLICOTT       NOT AVBL
FALCON         CLOUDY    43  12  28 SW7       30.21F
FORT CARSON    CLOUDY    39  10  31 CALM      30.19F
LIMON          CLOUDY    33  16  49 N6        30.19F WCI  28
MONUMENT HILL  CLOUDY    39  16  38 W5        30.20F
TRINIDAD       SUNNY     48  11  22 E6        30.23F
$$

COZ042>045-048>051-090-091-062000-
...NORTHEAST COLORADO...

CITY           SKY/WX    TMP DP  RH WIND       PRES   REMARKS
GREELEY ARPT   CLOUDY    25  18  74 N5        30.18F WCI  19
AKRON          CLOUDY    35  17  47 SW9       30.14F WCI  28
BURLINGTON     CLOUDY    34  17  50 SW22      30.19F WCI  22
WRAY           CLOUDY    40  21  47 SW8       30.17F
STERLING       CLOUDY    27  18  69 SW10      30.15F WCI  17
HOLYOKE        CLOUDY    37  27  65 W13       30.14F
FORT MORGAN    CLOUDY    26  14  61 W10       30.18F WCI  16
$$

COZ086-089-092>099-062000-
...SOUTHEAST COLORADO...

CITY           SKY/WX    TMP DP  RH WIND       PRES   REMARKS
PUEBLO         CLOUDY    41  18  39 E5        30.21F
LA JUNTA       CLOUDY    38  17  42 S3        30.24F
LAMAR          SUNNY     40  20  44 W6        30.24F
SPRINGFIELD      N/A     51   9  18 W7        30.24F
$$



USA.gov is the U.S. government's official web portal to all federal, state and local government web resources and services.